Temperature
19 17 17 17 18 19 19 19 18 19 19 19 18 18 18 18 18 17 18 18 18 18 18 18 18 18 18 17 17 17 17 17 16 16 16 15 15 15 15 15 15 14 14 14
17 18 18 18 18 19 19 18 18 19 19 19 18 18 17 17 17 17 17 17 17 18 17 17 18 17 17 17 17 17 17 16 16 16 16 15 15 15 15 14 14 14 14 14
19 19 20 19 19 19 19 18 19 19 19 18 18 18 17 17 17 17 17 17 17 17 17 17 17 17 17 17 17 17 16 16 16 16 15 15 15 14 14 14 14 14 14 13
18 19 20 20 19 19 19 19 19 19 18 17 18 17 18 17 16 16 16 16 17 17 17 17 17 17 17 17 17 16 16 16 16 16 15 15 15 14 14 14 14 14 13 13
19 20 20 20 20 20 19 19 19 18 18 17 17 17 17 16 16 16 16 16 16 16 17 17 17 17 17 16 16 16 16 16 15 15 15 15 14 14 14 14 13 13 13 13
19 20 20 20 20 20 19 18 17 15 15 17 17 17 16 15 16 16 16 16 16 16 16 17 17 16 16 16 16 16 15 15 15 15 14 14 14 14 14 13 13 13 13 12
18 19 20 20 20 19 18 17 16 17 16 16 17 16 16 16 16 16 16 16 16 16 16 16 16 16 16 16 15 15 15 15 15 14 14 14 14 14 13 13 13 13 12 12
17 18 20 20 20 19 18 17 16 17 16 16 16 16 16 16 16 16 16 16 16 16 16 16 16 16 15 15 15 15 14 14 14 14 14 14 14 13 13 13 12 12 12 12
17 17 19 20 19 19 18 16 16 15 16 15 16 16 16 16 16 15 15 15 15 15 15 15 15 15 15 15 15 15 14 14 14 14 13 13 13 13 12 12 12 12 12 11
17 17 18 19 19 18 18 16 14 15 15 16 16 16 16 16 15 15 14 14 14 15 15 15 15 15 15 15 15 14 14 14 13 13 13 13 13 12 12 12 12 12 11 11
16 16 17 18 18 18 17 16 15 13 14 15 15 16 16 15 15 14 14 14 14 14 14 14 14 15 14 14 14 14 14 13 13 13 13 13 12 12 12 12 12 11 11 11
15 14 15 16 17 17 17 16 15 15 15 14 14 15 16 15 15 14 14 14 14 14 14 14 14 14 14 14 14 13 13 13 13 13 12 12 12 12 12 11 11 11 11 11
15 14 14 16 16 16 16 16 15 14 13 13 14 16 15 15 14 14 14 14 14 14 14 14 14 14 14 13 13 13 13 13 13 12 12 12 12 12 12 11 11 11 11 11
15 13 14 15 15 16 16 16 15 14 14 14 14 15 15 14 14 13 13 13 14 14 13 13 14 13 13 13 13 13 12 12 12 12 12 12 11 11 11 11 11 11 11 11
13 13 14 14 16 16 16 16 16 15 15 15 15 15 15 14 14 13 13 13 13 13 13 13 13 13 13 13 13 13 12 12 12 12 12 11 11 11 11 11 11 11 11 10
11 13 14 15 16 16 16 16 16 16 16 15 15 15 14 14 13 13 13 13 13 13 13 13 13 13 13 13 13 12 12 12 12 12 11 11 11 11 11 11 11 11 11 10
11 12 13 13 14 15 15 15 16 16 15 15 14 14 13 13 13 13 13 13 13 13 13 13 13 13 13 13 13 12 12 12 12 11 11 11 11 11 11 11 11 11 11 10
11 11 11 12 14 15 15 15 16 15 15 14 14 13 13 13 13 13 13 13 13 13 13 13 13 13 13 13 12 12 12 12 11 11 11 11 11 11 11 10 11 11 11 10
10 11 11 11 13 14 15 15 15 15 14 14 13 13 13 13 13 13 13 13 13 13 13 13 13 13 13 13 12 12 12 11 11 11 11 11 11 11 11 11 11 11 11 11
11 11 11 12 13 14 14 15 15 15 14 14 13 12 12 12 12 12 13 13 13 13 13 13 13 13 13 13 12 12 12 11 11 11 11 11 11 11 11 11 11 11 11 11
11 11 11 12 13 13 14 15 15 15 14 14 13 13 13 12 12 13 13 13 13 13 13 13 13 13 13 12 12 12 12 11 11 11 11 11 11 11 11 11 11 11 11 11
11 11 11 11 12 13 14 14 14 13 14 14 13 14 13 13 13 13 14 13 13 13 13 13 13 13 12 12 12 12 11 11 11 11 11 11 11 11 11 11 11 11 11 11
10 11 10 11 12 13 13 13 14 14 13 14 13 14 14 13 13 13 13 13 13 13 13 13 13 13 12 12 12 12 12 11 11 11 11 11 11 11 11 11 11 11 11 11
11 11 10 10 11 12 13 14 14 14 14 14 14 14 14 14 13 13 13 13 13 13 13 13 13 12 12 12 12 12 12 11 11 11 11 11 11 11 11 11 11 11 11 11
10 10 10 10 11 12 13 14 14 14 14 14 14 14 14 14 14 13 13 13 13 13 13 13 13 13 12 12 12 12 12 11 11 11 11 11 11 11 11 11 11 11 11 11
10 10 10 11 12 11 12 13 13 13 14 14 14 14 14 14 14 13 13 13 13 13 13 13 13 12 12 12 12 12 12 11 11 11 11 11 11 11 11 11 11 11 11 11
Wind_Speed
2 3 3 7 7 5 3 3 6 7 4 1 3 5 5 2 3 4 4 4 5 5 3 3 4 5 5 6 7 7 7 7 6 5 4 4 3 2 2 2 3 4 4 4
4 4 8 5 4 4 4 3 5 6 2 2 2 4 4 1 4 4 4 4 4 3 3 4 4 4 4 5 6 6 6 6 6 5 4 3 3 2 2 1 1 3 4 4
5 6 2 2 2 3 4 5 5 5 3 2 1 4 3 1 1 1 2 2 3 5 5 5 5 4 5 5 6 7 7 7 6 5 4 4 3 2 1 1 1 1 2 3
5 5 2 2 4 4 5 6 5 2 1 3 1 3 5 2 2 3 3 2 2 3 4 5 6 5 5 5 5 5 5 6 6 6 6 6 5 4 4 3 2 1 2 2
5 3 2 3 5 5 6 2 1 1 2 1 1 2 6 1 3 5 4 3 3 4 4 5 5 5 4 4 5 5 5 5 5 5 6 6 4 3 2 2 2 1 0 0
6 4 3 4 3 2 2 4 5 5 4 1 3 3 6 4 5 4 4 4 3 3 3 3 4 4 3 3 4 4 5 4 4 5 5 6 5 5 4 3 2 1 0 0
7 6 3 1 2 3 5 5 4 5 3 5 2 2 7 5 5 4 4 4 3 3 3 2 3 4 3 3 4 4 5 4 4 4 5 5 5 5 5 4 3 2 1 1
4 7 5 2 1 2 1 5 5 3 4 5 2 4 6 3 2 1 2 2 3 3 3 3 3 4 4 4 4 5 5 4 4 4 3 3 4 4 3 3 3 2 1 2
2 6 6 4 2 4 2 2 4 4 1 2 4 5 6 2 2 2 2 2 2 2 2 2 2 3 3 4 4 6 6 5 5 5 4 3 3 4 4 4 3 2 1 1
2 5 6 4 3 4 3 5 4 4 2 3 5 4 4 5 4 1 1 2 2 2 2 2 1 2 3 3 4 5 5 5 4 4 4 4 4 3 3 3 3 2 1 1
1 2 6 5 2 2 2 3 3 2 3 3 3 6 4 6 5 4 3 3 3 3 3 2 1 1 2 3 4 4 4 4 4 3 3 3 3 3 3 3 2 2 1 1
2 1 4 6 5 2 1 2 4 2 3 3 3 6 4 2 3 3 3 3 3 3 3 2 2 2 2 3 3 4 4 4 4 4 4 3 2 3 3 2 2 1 1 1
3 2 4 7 6 5 3 1 1 2 2 3 3 6 4 3 2 1 3 3 3 3 3 2 2 2 3 3 3 3 4 3 3 3 4 3 2 2 2 2 2 1 1 1
1 1 3 5 6 5 5 6 3 3 2 4 6 7 6 5 4 2 3 3 4 4 4 3 3 3 3 3 3 3 3 3 3 3 4 3 3 2 2 2 2 1 1 1
3 1 4 7 8 5 5 8 6 4 5 5 7 6 8 6 5 4 5 5 5 4 4 4 4 3 3 3 3 3 3 3 3 4 3 3 2 2 1 1 1 1 1 1
4 1 3 5 5 4 5 7 7 4 3 3 4 6 5 4 1 1 4 5 5 5 5 4 3 4 4 4 4 4 4 3 4 4 3 2 2 2 1 1 1 0 1 1
3 2 2 4 7 4 4 4 3 3 2 1 3 5 4 4 1 3 4 5 4 5 4 4 4 4 5 5 5 5 4 4 4 4 3 3 3 2 2 1 1 0 1 1
1 1 0 2 4 2 4 2 3 3 3 3 3 4 4 4 2 1 2 4 4 3 3 3 3 3 4 4 4 4 4 4 4 3 3 3 3 2 2 1 1 2 2 2
3 2 1 0 2 5 5 5 3 2 4 4 4 5 5 4 4 3 0 2 4 4 3 3 4 3 3 4 4 5 4 4 4 3 3 3 3 3 2 2 2 2 2 3
3 2 2 0 1 3 4 7 6 1 3 5 5 4 4 4 3 3 2 0 1 1 2 2 3 3 3 3 5 5 4 4 4 4 4 3 3 4 3 3 2 2 2 3
3 2 0 1 2 5 5 7 5 2 5 7 5 4 3 2 4 4 2 1 2 2 2 2 4 4 4 4 5 5 4 4 4 3 3 3 3 3 3 2 1 1 1 2
2 1 1 0 1 5 7 6 2 5 5 5 5 4 3 3 3 2 1 1 3 3 2 3 4 3 3 5 6 4 4 4 3 3 3 3 2 2 2 2 1 1 1 2
3 3 3 4 6 6 5 5 6 4 5 5 4 5 3 2 3 2 0 1 3 3 3 3 4 4 3 4 5 4 3 3 3 3 2 2 1 1 2 2 1 1 1 1
4 2 2 5 7 8 8 7 5 4 4 5 5 4 2 2 1 1 1 1 2 2 3 3 4 4 2 3 3 3 2 3 4 3 2 2 2 1 0 0 1 1 2 2
5 3 3 6 8 9 7 6 5 6 6 5 6 4 2 1 1 1 1 2 2 2 2 3 4 4 3 2 2 2 2 4 4 3 2 1 1 1 1 1 2 3 4 4
4 5 4 7 7 6 10 9 8 6 6 5 5 4 3 1 1 0 1 2 2 3 3 3 3 3 2 2 2 2 3 4 4 3 2 1 1 1 1 2 3 4 4 6
Wind_Direction
58 75 224 227 207 207 214 241 267 267 266 244 236 259 280 253 202 218 215 207 204 195 170 151 146 146 145 149 154 161 162 161 157 157 163 170 181 185 185 176 170 162 160 161
27 276 243 223 207 205 211 245 269 285 279 188 243 277 277 217 211 215 211 216 213 192 156 157 145 145 157 165 168 166 167 168 172 171 168 168 156 173 184 175 152 154 158 166
213 249 237 188 223 215 237 212 236 255 327 31 34 310 292 279 238 209 191 204 196 189 184 182 176 174 174 182 182 176 176 172 171 159 139 126 109 95 139 161 184 200 171 175
252 262 251 246 247 190 258 238 216 224 64 300 49 279 284 254 261 241 219 203 196 192 188 188 184 188 187 185 172 166 170 168 165 158 159 160 169 182 197 191 189 197 175 177
271 266 253 249 246 190 227 261 164 157 142 338 343 202 280 279 246 251 244 220 207 201 193 191 187 186 180 167 159 159 154 160 159 160 169 168 174 182 168 152 152 155 137 139
262 275 233 241 277 186 155 56 50 50 72 302 255 194 274 244 228 233 226 222 215 199 188 178 164 154 153 145 145 145 147 158 160 164 167 168 170 167 156 152 148 137 114 222
323 315 302 241 353 10 70 77 19 355 359 258 277 210 253 254 233 212 215 217 204 176 157 135 137 147 151 144 150 148 153 163 165 162 166 170 166 168 169 165 162 158 175 252
334 311 315 333 207 217 170 137 161 220 242 282 317 245 258 270 253 198 192 169 154 139 130 133 152 159 157 156 159 156 162 163 159 158 172 165 157 165 167 157 156 166 206 245
264 282 306 321 332 134 129 160 170 144 242 283 282 283 304 349 9 36 86 118 146 146 136 136 129 145 158 164 170 168 163 162 162 160 157 149 151 162 165 150 138 150 181 229
213 275 298 307 30 24 125 147 91 114 169 268 290 277 259 263 260 267 160 161 163 133 127 119 113 149 164 161 152 150 152 159 160 152 162 166 162 154 149 147 147 163 182 191
0 262 311 345 2 305 29 63 88 111 161 178 266 275 246 230 221 215 215 192 167 155 153 149 142 145 144 130 136 144 140 135 138 153 160 158 158 149 141 151 166 176 177 190
341 104 296 290 291 302 158 147 137 147 254 199 214 269 301 251 212 195 200 170 154 152 152 148 152 136 133 142 146 150 149 153 162 161 150 157 159 151 154 164 181 166 194 215
336 50 345 339 347 3 19 354 156 141 146 190 210 267 320 353 347 190 179 166 158 152 145 137 138 149 154 154 156 155 153 162 154 146 147 147 156 159 168 174 178 175 177 201
6 154 191 235 260 286 300 304 285 161 190 240 239 259 294 298 281 248 202 180 165 163 164 160 157 165 162 158 164 161 158 154 145 146 152 160 176 179 179 178 179 184 184 194
50 268 255 260 268 267 279 292 296 246 219 225 263 262 274 274 250 222 197 176 167 168 170 178 173 170 164 159 160 154 153 152 147 143 151 173 173 159 154 164 172 183 211 234
14 313 311 296 290 291 298 306 303 289 277 266 286 282 298 313 351 174 183 173 180 183 183 184 176 168 171 173 171 166 170 163 149 146 158 162 150 151 162 176 174 187 295 301
333 350 351 297 314 339 315 309 307 300 305 265 272 288 329 340 298 199 192 182 186 185 182 184 187 185 187 182 176 179 180 158 151 160 167 160 160 173 197 185 154 241 285 299
232 24 130 308 358 285 255 313 331 313 342 6 344 335 337 322 308 263 185 172 175 184 184 193 195 191 185 174 170 168 158 155 161 173 183 175 165 186 199 182 232 263 276 273
181 144 86 24 304 288 315 345 339 315 314 6 1 348 352 11 21 359 63 154 179 186 191 200 196 188 172 170 164 152 153 157 166 182 199 201 180 190 204 215 244 266 272 284
51 90 96 41 284 277 294 331 327 349 312 344 342 330 335 4 355 296 291 185 180 166 160 164 162 153 159 162 144 146 159 166 189 203 210 212 191 194 213 227 248 263 261 274
358 2 358 233 258 276 307 336 5 26 296 316 308 299 296 287 259 271 279 228 172 162 157 150 148 158 173 157 147 157 172 198 210 202 200 208 203 202 211 223 250 263 279 300
270 293 269 214 265 276 334 359 5 267 291 303 297 293 291 301 313 300 241 172 151 143 138 142 147 161 161 154 154 168 197 210 191 181 191 204 207 204 194 187 244 263 264 303
251 225 236 222 240 274 302 292 293 288 299 302 293 293 283 299 308 317 330 149 152 151 152 150 149 150 152 160 165 181 209 178 160 162 183 193 192 186 178 190 238 275 275 288
289 286 259 283 282 294 302 306 313 312 307 308 303 296 273 275 291 326 168 158 148 149 153 145 135 140 160 172 181 197 187 152 148 161 177 179 174 199 212 211 237 253 265 273
259 286 282 277 288 310 315 312 318 329 332 329 325 315 278 241 269 229 180 174 160 146 137 139 145 158 169 170 183 183 155 143 146 157 168 174 181 204 259 284 262 257 257 240
230 225 240 260 268 276 288 298 305 312 313 311 317 326 330 308 231 183 152 170 161 148 141 138 143 152 161 159 169 169 159 153 153 165 183 196 210 229 250 295 319 302 269 275
Height
1488 1494 1497 1494 1492 1493 1494 1498 1499 1492 1485 1487 1488 1487 1483 1481 1482 1482 1482 1483 1483 1485 1487 1489 1492 1493 1495 1497 1499 1501 1503 1505 1508 1509 1511 1512 1513 1515 1517 1519 1520 1520 1521 1522
1493 1495 1488 1486 1488 1490 1493 1497 1497 1490 1484 1486 1488 1487 1483 1481 1481 1481 1481 1482 1483 1484 1486 1488 1490 1492 1494 1496 1498 1500 1502 1503 1505 1507 1508 1510 1511 1513 1515 1516 1517 1518 1519 1520
1493 1488 1483 1485 1487 1491 1491 1494 1492 1491 1486 1485 1488 1490 1485 1481 1481 1481 1481 1481 1482 1483 1485 1487 1489 1490 1492 1494 1496 1498 1500 1502 1503 1505 1507 1509 1510 1512 1513 1514 1515 1516 1517 1518
1489 1484 1483 1484 1486 1487 1492 1483 1484 1486 1493 1497 1493 1503 1488 1483 1482 1481 1480 1480 1481 1482 1484 1485 1487 1488 1490 1492 1494 1496 1498 1500 1501 1503 1505 1507 1508 1509 1510 1512 1513 1514 1515 1516
1487 1482 1482 1484 1481 1481 1483 1479 1482 1486 1491 1498 1496 1502 1494 1484 1484 1481 1479 1479 1480 1481 1482 1483 1485 1487 1488 1490 1492 1494 1496 1498 1500 1502 1503 1505 1506 1507 1508 1510 1511 1512 1513 1514
1484 1480 1479 1478 1475 1476 1478 1482 1487 1493 1498 1506 1497 1501 1497 1487 1481 1478 1477 1478 1478 1480 1481 1482 1484 1486 1488 1489 1491 1493 1495 1497 1499 1500 1502 1503 1504 1505 1506 1507 1509 1510 1511 1512
1489 1482 1477 1476 1479 1478 1481 1493 1508 1509 1513 1508 1495 1498 1494 1479 1475 1475 1475 1475 1477 1478 1479 1481 1482 1484 1486 1488 1489 1491 1493 1495 1497 1498 1500 1501 1502 1504 1505 1506 1507 1508 1509 1510
1501 1496 1480 1477 1479 1483 1485 1491 1509 1516 1516 1507 1496 1497 1486 1475 1473 1473 1474 1474 1475 1477 1478 1480 1481 1483 1485 1487 1488 1489 1492 1494 1495 1497 1499 1500 1501 1502 1503 1504 1505 1506 1507 1508
1503 1497 1480 1476 1476 1479 1486 1492 1492 1504 1506 1510 1502 1492 1481 1474 1473 1473 1473 1474 1475 1476 1478 1480 1481 1483 1484 1486 1487 1489 1490 1492 1494 1495 1496 1498 1499 1500 1501 1502 1503 1505 1506 1507
1496 1498 1485 1479 1476 1478 1481 1487 1498 1505 1512 1513 1502 1495 1490 1478 1475 1474 1474 1474 1474 1476 1478 1480 1481 1483 1484 1485 1487 1488 1489 1490 1492 1493 1495 1496 1497 1498 1500 1501 1502 1504 1504 1505
1494 1500 1492 1485 1484 1485 1486 1490 1496 1503 1505 1511 1511 1500 1477 1475 1473 1474 1474 1474 1474 1476 1478 1479 1481 1482 1484 1485 1486 1487 1488 1489 1491 1493 1494 1495 1496 1497 1499 1500 1501 1502 1503 1504
1497 1502 1502 1492 1483 1481 1482 1487 1494 1503 1504 1505 1507 1498 1472 1471 1470 1472 1473 1474 1475 1476 1478 1479 1481 1482 1483 1484 1485 1486 1488 1489 1491 1492 1493 1495 1496 1497 1498 1499 1500 1501 1502 1503
1498 1504 1508 1500 1495 1487 1487 1487 1490 1496 1503 1506 1506 1494 1473 1471 1471 1471 1473 1473 1474 1476 1477 1479 1480 1481 1483 1484 1485 1486 1487 1489 1490 1491 1493 1494 1495 1496 1497 1498 1499 1500 1501 1502
1497 1504 1508 1509 1502 1494 1491 1487 1487 1493 1500 1500 1494 1485 1476 1473 1472 1472 1472 1472 1474 1475 1477 1478 1479 1481 1482 1484 1485 1486 1487 1489 1490 1491 1492 1493 1495 1496 1497 1498 1499 1500 1500 1501
1498 1503 1500 1496 1491 1490 1488 1486 1484 1487 1488 1491 1485 1482 1476 1472 1471 1470 1471 1471 1473 1474 1476 1477 1478 1479 1481 1483 1484 1485 1487 1488 1490 1490 1492 1493 1494 1496 1497 1498 1498 1499 1500 1500
1501 1503 1499 1495 1488 1488 1487 1484 1482 1481 1482 1482 1480 1479 1473 1471 1470 1470 1470 1471 1472 1473 1475 1476 1478 1479 1480 1482 1483 1485 1487 1488 1489 1490 1491 1493 1494 1496 1497 1498 1499 1499 1499 1499
1504 1504 1505 1502 1492 1489 1493 1486 1483 1482 1480 1480 1482 1479 1474 1472 1470 1470 1470 1470 1471 1473 1474 1475 1477 1478 1480 1482 1483 1485 1486 1488 1489 1490 1491 1493 1494 1496 1497 1497 1498 1498 1498 1498
1505 1506 1509 1507 1499 1501 1492 1481 1480 1480 1479 1478 1477 1476 1474 1472 1471 1470 1470 1470 1471 1473 1474 1475 1477 1478 1479 1481 1483 1485 1486 1488 1489 1490 1492 1493 1494 1495 1496 1497 1497 1497 1498 1498
1501 1504 1508 1510 1505 1497 1486 1481 1481 1481 1481 1478 1477 1475 1474 1473 1472 1471 1471 1472 1472 1473 1474 1475 1476 1478 1479 1481 1483 1485 1486 1487 1489 1490 1491 1492 1493 1494 1496 1496 1497 1497 1497 1496
1501 1503 1507 1508 1506 1502 1492 1481 1478 1479 1482 1477 1477 1476 1474 1473 1475 1473 1471 1471 1472 1473 1474 1475 1476 1478 1479 1481 1483 1484 1485 1487 1488 1490 1491 1492 1492 1494 1495 1496 1496 1496 1496 1495
1508 1508 1509 1509 1506 1496 1487 1482 1479 1487 1488 1479 1477 1475 1474 1473 1474 1472 1471 1471 1472 1473 1474 1475 1476 1478 1479 1481 1483 1484 1485 1486 1488 1490 1491 1492 1492 1493 1494 1495 1495 1495 1495 1494
1511 1511 1509 1509 1508 1501 1485 1483 1486 1486 1480 1477 1476 1475 1473 1472 1471 1470 1470 1470 1471 1472 1474 1475 1476 1478 1480 1481 1483 1484 1485 1487 1488 1489 1490 1491 1492 1493 1494 1494 1494 1494 1494 1493
1510 1508 1507 1506 1503 1492 1487 1486 1484 1482 1479 1477 1475 1474 1472 1471 1470 1469 1469 1470 1471 1472 1474 1475 1476 1478 1479 1481 1483 1484 1485 1486 1488 1489 1490 1491 1492 1492 1493 1493 1493 1493 1492 1491
1506 1503 1503 1501 1493 1489 1486 1484 1482 1480 1478 1476 1474 1473 1472 1470 1469 1469 1470 1470 1471 1472 1474 1475 1476 1478 1479 1481 1483 1484 1485 1486 1487 1488 1489 1491 1491 1492 1492 1493 1493 1492 1491 1491
1506 1503 1502 1499 1492 1487 1483 1482 1481 1479 1477 1475 1474 1473 1472 1470 1470 1470 1470 1471 1472 1473 1474 1476 1477 1479 1480 1482 1483 1484 1485 1487 1488 1489 1490 1490 1491 1492 1492 1492 1492 1491 1491 1490
1501 1501 1500 1496 1490 1489 1484 1481 1480 1477 1475 1474 1473 1471 1471 1471 1470 1470 1470 1471 1472 1474 1475 1476 1478 1479 1481 1482 1484 1485 1486 1487 1488 1489 1490 1490 1491 1492 1492 1492 1491 1491 1490 1489